Lapse_Rate
3.9 3.3 3.2 2.9 2.7 2.4 2.2 2.0 1.8 2.1 2.0 1.8 1.4 0.9 0.6 0.4 0.1 -0.2 0.1 0.4 0.5 0.6 0.8 1.2 1.6 1.8 3.3 5.0 4.1 3.8 3.9 4.0 3.7 4.2 5.2 5.7 5.9 5.2 6.5 6.3 5.8 6.5 6.5 5.1 4.6 4.4 4.8
3.4 3.2 3.1 2.9 2.6 2.2 2.0 1.8 2.0 2.0 1.7 1.5 1.2 0.7 0.3 0.3 -0.1 -0.2 0.1 0.1 0.2 0.4 0.8 1.3 1.5 1.6 4.4 6.3 4.9 3.8 3.2 3.3 4.6 4.7 5.3 5.5 6.0 5.7 5.7 6.1 6.5 6.0 6.2 5.6 4.9 5.1 5.5
3.6 3.2 2.8 2.8 2.5 2.2 2.0 1.8 1.5 1.6 1.5 1.2 0.8 0.3 -0.1 -0.3 -0.2 -0.2 -0.1 0.1 0.3 0.5 0.8 1.4 1.7 3.7 5.2 3.6 5.1 4.2 4.1 4.7 5.0 5.4 6.0 6.0 6.5 6.9 5.6 6.5 5.6 5.8 6.5 6.5 6.2 5.5 6.4
3.7 3.1 3.0 2.6 2.2 1.9 1.9 1.5 1.5 1.3 1.1 0.8 0.5 0.0 -0.4 -0.8 -0.8 -0.6 -0.6 -0.4 0.1 0.5 0.9 1.4 2.1 4.6 3.9 6.1 5.2 5.1 5.2 6.2 6.5 6.6 6.7 6.5 6.0 6.2 6.3 5.9 5.5 6.5 6.5 6.5 6.5 6.6 6.1
3.7 3.2 2.8 2.5 2.2 1.9 1.7 1.6 1.2 1.1 0.8 0.5 0.2 -0.2 -0.5 -1.0 -1.2 -0.7 -0.7 -0.2 0.1 0.6 1.5 2.0 3.6 5.3 5.0 6.3 6.6 5.9 5.9 5.8 6.3 6.6 6.7 7.0 6.2 5.3 6.3 6.5 6.5 6.5 6.5 6.5 6.5 6.6 6.5
4.3 3.5 3.0 2.2 2.0 1.7 1.7 1.5 1.1 0.9 0.6 0.2 -0.1 -0.6 -0.9 -1.0 -1.1 -0.8 -0.5 0.8 0.8 1.2 2.6 4.7 6.2 6.4 5.7 5.7 5.9 5.9 6.2 6.3 6.7 6.1 6.4 6.3 4.8 6.5 6.5 6.5 6.5 6.5 6.5 6.5 6.5 6.5 6.5
4.9 3.3 2.7 2.1 1.9 1.9 1.6 1.3 1.0 0.8 0.5 0.0 -0.4 -0.8 -1.0 -1.1 -1.0 -1.0 0.1 1.4 3.9 4.9 5.8 3.0 3.4 3.6 5.2 5.5 6.3 6.7 7.1 6.9 6.4 6.4 6.5 5.8 6.5 6.5 6.5 6.5 6.5 6.5 6.5 6.5 6.5 6.5 6.5
5.0 3.2 2.6 2.4 2.3 2.0 1.7 1.4 1.1 0.9 0.5 0.0 -0.5 -1.0 -1.1 -1.1 -1.0 -0.5 -0.3 3.8 3.8 4.1 5.2 2.9 4.6 5.8 6.0 5.1 6.1 6.2 6.4 5.8 5.9 6.5 6.5 6.5 6.5 6.5 6.5 6.5 6.5 6.5 6.5 6.5 6.5 6.5 6.5
3.7 3.4 3.2 2.8 2.4 2.0 1.7 1.4 1.2 1.0 0.7 0.1 -0.2 -0.6 -0.9 -0.8 -0.9 1.8 3.1 3.9 3.9 5.0 5.7 5.5 6.4 6.3 6.5 6.5 5.9 5.2 5.5 5.8 6.5 6.5 6.5 6.5 6.5 6.5 6.5 6.5 6.5 6.5 6.5 6.5 6.5 6.5 6.5
4.8 4.3 3.8 3.1 2.5 2.1 2.0 1.9 1.6 1.1 0.9 0.4 0.0 -0.2 -0.1 -0.9 3.4 2.8 3.6 4.4 4.2 4.6 6.5 6.5 6.4 6.7 6.7 6.2 6.3 6.3 4.9 6.0 6.4 6.5 6.5 6.5 6.4 6.5 6.5 6.5 6.5 6.5 6.5 6.5 6.5 6.5 6.5
4.8 4.2 3.6 3.2 2.7 2.2 1.8 1.9 1.6 1.0 0.5 0.1 -0.0 0.0 0.0 0.2 1.0 3.7 4.1 4.0 4.1 3.5 6.5 6.5 6.6 6.8 6.4 6.0 6.1 6.5 6.0 6.1 6.5 6.5 6.5 6.5 6.5 6.5 6.5 6.5 6.5 6.5 6.5 6.5 6.5 6.5 6.5
3.6 3.4 3.1 3.0 2.8 2.4 2.1 2.0 1.7 1.6 1.1 0.0 -0.2 -0.5 0.1 1.8 1.8 3.8 4.0 3.6 3.2 6.5 6.5 6.5 6.2 6.5 6.5 6.4 6.4 6.2 6.2 6.6 6.5 6.5 6.5 6.5 6.1 6.5 6.5 6.5 6.5 6.5 6.5 6.5 6.5 6.5 6.5
4.0 3.9 3.5 3.2 2.9 2.5 2.1 1.8 1.5 1.3 0.8 -0.1 -0.6 -0.4 0.3 2.5 3.4 3.8 2.6 3.1 6.5 6.5 6.5 6.5 6.5 6.5 6.5 6.5 6.5 6.5 6.5 6.5 6.5 6.5 6.5 6.5 6.5 6.5 6.4 6.5 6.5 6.5 6.5 6.5 6.5 6.5 6.5
4.3 4.1 3.7 3.0 2.6 2.3 1.9 1.4 1.1 1.1 0.6 -0.1 0.1 1.9 3.8 5.6 4.5 3.2 2.7 6.2 6.5 6.5 6.5 6.5 6.5 6.5 6.5 6.5 6.5 6.5 6.5 6.5 6.5 6.5 6.5 6.5 6.5 6.5 6.5 6.5 6.5 6.5 6.5 6.5 6.5 6.5 6.5
4.3 3.9 3.6 3.2 2.8 2.4 1.9 1.4 1.2 1.0 0.4 0.3 1.8 2.6 4.6 4.6 5.3 2.8 3.8 6.5 6.5 6.5 6.5 6.5 6.5 6.5 6.5 6.5 6.5 6.5 6.5 6.5 6.5 6.5 6.5 6.5 6.5 6.5 6.5 6.5 6.5 6.5 6.5 6.5 6.5 6.5 6.5
4.7 4.1 3.7 3.3 3.1 2.6 2.0 1.5 1.2 0.9 0.7 0.7 -0.1 3.0 4.9 5.5 4.7 2.9 5.8 6.5 6.5 6.5 6.5 6.5 6.5 6.5 6.5 6.5 6.5 6.5 6.5 6.5 6.5 6.5 6.4 6.5 6.5 6.5 6.5 6.4 6.5 6.5 6.5 6.5 6.5 6.5 6.5
6.5 5.8 4.2 3.6 3.4 3.0 2.4 2.1 1.7 1.0 0.9 1.2 1.4 4.0 4.7 4.4 3.0 3.1 6.5 6.5 6.5 6.8 6.1 6.5 6.5 6.5 6.5 6.5 6.5 6.5 6.5 6.5 6.5 6.5 6.4 6.5 6.5 6.5 6.5 6.5 6.5 6.5 6.5 6.5 6.5 6.5 6.5
7.1 7.2 5.3 4.5 3.9 3.5 3.1 2.5 1.9 1.2 0.7 -1.0 1.5 6.4 4.9 2.9 5.1 5.3 6.5 6.5 6.0 6.5 5.9 6.5 6.5 6.5 6.5 6.5 6.5 6.5 6.5 6.5 6.9 6.7 6.5 6.5 6.5 6.5 6.5 6.5 6.5 6.5 6.5 6.5 6.5 6.5 6.5
8.1 8.4 8.1 5.7 4.8 3.8 3.1 2.8 2.3 2.0 2.5 -0.4 3.1 3.7 3.9 2.1 6.5 6.5 6.3 6.5 6.3 6.5 6.5 6.5 6.5 6.5 6.5 6.5 6.5 6.5 6.5 6.6 6.8 6.5 6.5 6.5 6.5 6.5 6.5 6.5 6.5 6.5 6.5 6.5 6.5 6.5 6.5
9.2 8.3 7.5 6.9 5.5 4.2 3.6 2.9 2.1 1.7 2.5 0.7 3.2 6.5 1.9 2.7 3.6 6.4 6.5 6.5 6.5 5.8 6.4 6.3 6.5 6.4 6.5 6.5 6.5 6.5 6.5 6.5 6.0 6.3 6.9 6.7 6.5 6.5 6.5 6.5 6.5 6.5 6.5 6.5 6.5 6.5 6.5
8.4 8.3 8.2 7.6 6.8 5.9 4.5 3.4 2.6 2.0 2.1 1.0 2.4 6.2 6.2 6.5 6.0 6.4 6.4 6.5 6.5 6.5 6.4 5.9 6.5 6.5 6.5 6.5 6.5 6.5 6.5 6.5 6.4 6.5 6.4 6.5 6.5 6.5 6.5 6.5 6.5 6.5 6.5 6.5 6.5 6.5 6.5
8.4 8.5 8.3 7.9 7.8 7.2 6.4 5.6 4.1 2.7 2.2 -0.3 3.3 4.6 3.0 4.6 5.4 6.3 6.5 6.5 6.5 6.5 6.5 6.5 6.5 6.5 6.5 6.5 6.5 6.5 6.5 6.5 6.5 6.5 6.5 6.5 6.5 6.5 6.5 6.5 6.5 6.5 6.5 6.5 6.5 6.5 6.5
8.6 8.1 8.6 8.2 7.9 7.8 7.1 6.6 6.1 5.0 2.2 1.8 3.4 4.7 4.7 5.7 6.0 6.5 6.5 6.5 6.5 6.4 6.5 6.7 6.5 6.5 6.5 6.5 6.4 6.5 6.4 6.5 6.5 6.5 6.5 6.5 6.5 6.5 6.5 6.5 6.5 6.5 6.5 6.5 6.5 6.5 6.5
9.0 8.7 8.6 8.3 7.6 7.9 8.0 7.9 7.5 6.5 5.1 2.5 4.6 4.2 4.4 6.5 6.5 6.5 6.5 6.5 6.5 6.4 6.5 6.6 6.5 6.4 6.6 6.3 6.3 6.2 6.0 6.5 6.4 6.5 6.5 6.5 6.5 6.5 6.5 6.5 6.5 6.5 6.5 6.5 6.5 6.5 6.5
8.8 8.3 8.2 8.3 8.2 7.6 7.7 7.9 7.6 6.9 6.4 3.4 3.7 4.0 4.9 6.5 6.0 6.4 6.3 6.4 6.1 5.7 6.4 6.5 6.7 6.8 5.7 6.0 6.5 6.5 6.5 6.5 6.5 6.5 6.5 6.5 6.5 6.5 6.5 6.5 6.5 6.5 6.5 6.5 6.5 6.5 6.5
8.2 7.6 8.9 8.4 8.4 8.2 7.6 7.2 7.2 7.2 7.1 4.7 4.6 4.9 5.2 5.4 6.3 6.5 6.1 6.3 6.5 6.5 6.5 6.4 6.6 5.6 6.3 6.5 6.5 6.5 6.5 6.5 6.5 6.5 6.5 6.5 6.5 6.5 6.5 6.5 6.5 6.5 6.5 6.9 6.6 6.5 4.7
9.2 8.9 7.4 7.8 8.5 8.3 8.4 7.2 6.9 7.6 7.7 6.7 5.5 6.4 5.6 5.5 5.4 6.8 6.0 6.5 6.1 6.2 6.5 6.0 6.2 5.7 6.1 6.5 6.5 6.5 6.5 6.5 6.5 6.5 6.5 6.5 6.5 6.5 6.5 6.5 6.5 6.5 6.0 4.8 6.5 6.5 3.8
9.1 9.2 9.0 9.0 9.0 8.7 8.7 8.2 7.4 7.5 8.2 7.2 6.4 7.0 5.5 5.9 4.4 6.9 6.5 6.2 5.8 5.6 6.5 5.7 6.1 6.1 6.3 6.5 6.5 6.5 6.5 6.5 6.5 6.5 6.5 6.5 6.5 6.5 6.5 6.5 6.5 4.7 5.5 6.5 5.0 0.9 1.4
9.2 8.3 9.1 8.8 7.2 7.5 8.2 8.3 8.2 7.5 7.5 7.7 6.9 7.4 7.0 6.1 4.8 5.4 5.5 5.9 6.7 6.9 6.4 5.8 6.1 6.4 6.2 6.5 6.5 6.5 6.5 6.5 6.5 6.5 6.5 6.5 6.5 6.5 6.5 6.5 3.6 3.2 4.0 2.2 2.4 3.5 2.9
Wind_Speed
19 19 19 20 21 21 21 21 21 22 22 21 20 19 17 14 11 9 9 8 7 6 7 5 5 3 1 1 7 6 11 11 7 5 4 3 3 5 3 4 3 6 5 7 8 6 6
19 19 20 21 22 22 22 21 22 23 23 22 21 20 18 16 12 9 9 7 6 6 6 6 5 2 1 3 2 13 9 6 5 5 5 5 5 5 5 5 2 3 3 6 7 7 5
20 20 22 22 22 22 22 22 23 24 24 23 23 22 21 18 15 11 9 7 7 6 6 6 4 3 2 10 8 13 8 5 4 4 3 5 1 3 3 5 4 3 6 8 8 6 5
20 22 22 23 23 23 23 24 24 25 25 26 25 25 24 21 17 13 11 9 7 6 6 6 5 2 6 2 3 9 6 3 4 4 2 1 4 1 2 3 6 3 0 3 5 9 4
20 21 23 23 23 24 24 24 25 26 26 27 27 27 26 24 21 15 10 8 6 7 6 6 3 3 7 3 4 6 6 5 4 3 2 2 4 5 0 2 4 2 4 6 7 5 5
19 21 23 24 23 24 25 26 26 26 27 28 29 29 29 27 23 16 10 2 5 5 3 3 3 2 4 4 4 5 6 7 3 4 2 2 1 2 1 4 6 6 5 6 5 5 2
20 22 22 23 24 25 25 26 27 27 28 29 30 30 29 27 26 16 3 2 2 1 4 9 7 4 6 2 4 3 4 4 4 2 5 4 3 10 12 12 7 4 4 8 6 6 7
21 21 22 23 24 25 26 26 27 27 28 29 30 30 31 28 29 18 2 4 2 2 7 10 11 6 3 6 3 4 6 6 5 6 3 1 9 11 7 7 9 10 11 10 7 4 8
20 21 22 23 24 25 26 27 27 28 28 30 31 30 31 31 27 4 4 3 1 1 2 5 2 3 4 6 4 9 11 5 5 5 7 7 7 4 8 10 9 11 7 6 9 4 3
20 21 22 24 25 26 27 28 28 29 29 30 31 31 29 33 3 4 2 1 2 2 4 3 0 1 3 3 3 3 9 5 4 9 7 8 15 16 13 6 8 8 7 9 6 3 5
19 21 23 24 26 27 28 29 30 30 30 31 31 30 28 18 3 3 2 4 2 2 4 1 3 2 2 5 2 2 2 3 3 3 2 9 3 5 8 15 9 10 6 5 2 4 2
20 22 23 25 26 28 29 30 31 31 32 33 33 28 21 2 1 2 6 4 3 5 5 2 3 3 2 2 1 2 1 3 2 4 7 10 3 4 7 1 3 4 3 3 4 3 4
20 22 24 26 27 28 30 31 32 33 34 35 34 27 10 4 1 7 4 3 5 4 4 2 2 3 3 4 5 6 5 4 5 1 5 4 10 8 5 3 1 3 6 2 3 0 8
21 23 25 26 28 30 31 33 34 34 36 36 35 19 4 2 6 5 2 4 3 2 5 6 6 5 4 1 6 5 4 2 7 5 3 4 10 10 6 13 8 7 9 6 6 5 4
22 24 25 27 29 31 33 34 36 37 36 36 21 3 2 4 6 3 4 3 3 5 6 7 6 4 5 7 7 6 6 3 2 7 5 4 6 0 3 4 7 3 5 7 3 2 1
22 24 26 28 30 32 34 36 39 38 36 30 2 2 3 8 4 3 4 2 5 5 7 5 3 5 5 8 8 8 6 3 12 11 11 8 11 11 3 3 1 5 3 2 2 4 6
22 24 26 28 31 33 35 36 39 40 39 22 3 3 3 14 3 4 3 3 4 10 11 9 6 5 5 6 5 6 4 5 11 13 9 12 5 5 3 5 8 1 3 5 3 5 7
22 24 26 28 32 35 37 38 40 40 38 10 2 3 5 4 4 3 3 4 6 6 9 7 4 6 3 8 5 7 5 3 11 9 7 8 5 7 10 4 6 5 6 6 9 9 5
20 23 24 27 30 34 38 40 40 40 31 2 2 1 5 5 4 3 5 6 5 6 6 6 5 5 4 3 4 3 5 5 6 12 4 6 3 6 7 3 5 7 8 8 8 4 11
24 24 28 29 29 32 35 39 41 42 34 3 3 3 4 5 2 4 3 3 5 10 4 5 2 4 2 3 4 5 6 6 12 10 7 6 4 7 7 10 9 7 8 9 3 4 6
22 22 23 25 28 28 32 37 41 43 32 3 4 3 0 3 5 4 3 5 5 6 6 7 3 8 5 4 6 5 4 5 3 6 4 2 4 8 11 12 10 8 8 12 5 6 2
27 28 28 31 24 26 27 32 38 42 23 4 3 3 4 3 5 5 8 6 6 5 3 4 4 9 5 5 9 10 6 3 5 5 3 5 5 8 16 13 7 13 13 9 10 8 5
25 27 28 27 32 26 25 25 28 34 17 4 3 3 3 5 4 4 3 4 6 5 5 4 7 7 7 10 6 12 12 14 16 11 14 5 3 2 5 2 7 4 11 9 9 11 4
23 24 26 25 26 28 24 21 21 25 21 3 1 1 3 2 4 3 4 4 5 6 4 5 5 6 4 8 12 13 14 15 11 13 12 9 5 2 4 5 3 4 7 10 11 8 8
24 24 24 24 24 24 23 25 21 17 20 4 2 3 2 2 2 3 6 4 4 6 4 4 4 4 6 6 3 6 3 2 7 8 10 5 0 2 2 3 3 1 3 4 3 2 6
22 22 24 24 23 23 22 25 23 19 12 4 2 2 2 2 2 4 2 3 1 4 6 3 5 7 3 2 3 1 2 3 3 3 7 7 7 3 4 4 4 3 6 6 4 2 3
21 21 22 21 22 20 22 23 22 19 11 2 1 3 2 1 2 2 0 2 2 2 2 4 7 6 4 2 2 1 2 4 3 3 6 5 5 3 3 2 4 4 11 4 3 4 3
21 22 22 20 19 22 22 22 21 19 17 1 2 5 3 1 5 2 2 1 2 1 1 4 4 4 3 4 3 3 3 2 4 1 3 3 2 3 2 3 2 4 4 4 5 4 3
21 21 20 20 21 21 21 21 20 19 16 2 1 3 4 2 4 2 4 5 4 4 2 2 2 0 2 2 2 2 3 3 2 1 5 1 0 1 2 3 4 3 5 3 3 3 5
Wind_Direction
23 21 21 23 22 20 20 17 14 9 6 5 3 -0 355 349 339 321 299 283 270 268 265 267 277 304 182 197 250 170 156 149 136 144 200 206 193 177 226 225 228 223 249 256 257 203 216
21 21 23 23 21 19 17 14 10 5 3 1 360 357 354 350 343 326 306 283 262 245 251 261 270 261 160 249 154 156 151 154 167 165 195 200 203 198 263 253 193 257 237 271 271 240 233
23 24 23 21 19 17 14 11 6 3 0 359 357 355 352 347 340 325 306 291 259 237 229 245 245 238 226 235 159 162 159 192 182 177 179 231 198 175 351 293 305 312 315 311 251 221 220
25 23 19 18 16 14 12 9 6 1 358 356 354 352 349 347 341 332 314 294 256 226 221 226 224 229 244 271 167 148 186 132 156 208 133 50 84 68 189 297 334 261 238 297 283 140 192
24 20 17 15 13 11 8 6 3 360 357 354 352 350 348 346 344 336 321 297 234 208 205 203 180 174 268 325 148 192 155 166 149 97 76 90 90 195 99 135 342 272 243 221 308 177 132
21 18 15 12 11 8 6 3 0 359 356 353 350 348 346 344 341 338 333 340 151 143 219 210 269 5 263 222 173 172 195 143 152 129 82 149 135 179 131 120 227 216 228 246 242 211 133
30 20 16 12 10 7 3 1 359 358 356 352 349 345 342 340 337 337 23 88 34 289 220 195 194 217 138 86 46 96 120 125 104 158 182 213 152 214 197 204 222 267 264 258 258 228 168
29 20 15 11 9 5 2 0 358 356 354 351 348 343 339 337 333 323 196 79 108 196 299 252 246 259 136 166 113 199 122 165 178 206 195 192 238 234 205 216 232 257 259 265 282 247 183
26 18 13 11 8 5 1 358 356 354 352 349 347 343 337 334 327 348 72 80 8 43 267 299 232 196 171 141 213 202 154 186 198 205 205 197 223 184 198 238 252 248 222 250 252 286 248
21 17 13 10 7 4 360 356 354 352 349 346 343 340 336 332 13 331 60 22 346 67 29 262 63 358 94 108 264 211 181 186 233 214 214 239 242 240 253 229 199 257 215 240 258 250 248
21 17 13 9 5 1 358 355 351 349 345 341 338 336 333 329 288 38 336 347 359 56 10 106 118 315 94 149 135 11 9 28 229 255 183 243 244 202 229 241 182 243 201 214 223 246 355
22 16 12 8 4 360 356 353 350 347 342 337 332 330 331 107 255 321 336 346 58 53 259 91 116 148 115 221 215 111 96 37 270 259 256 249 260 230 215 86 181 137 101 38 49 85 273
22 15 11 6 3 359 356 353 349 346 341 335 329 325 314 288 324 329 347 58 51 146 319 51 75 160 221 201 213 175 169 175 197 227 255 297 243 226 164 192 28 163 91 299 309 72 241
22 17 12 9 5 0 357 354 350 347 342 336 332 330 159 79 339 352 61 59 174 274 11 355 356 280 218 270 244 183 149 252 244 223 276 239 294 170 199 203 186 192 168 176 211 202 252
21 17 11 9 5 2 359 355 351 347 342 340 336 339 42 315 338 35 77 80 28 27 322 338 339 5 344 22 7 349 213 269 286 208 212 260 260 35 152 159 148 193 183 208 306 194 347
20 18 13 10 5 3 1 358 353 350 344 339 7 0 330 310 9 57 75 91 107 19 325 330 74 51 358 335 6 23 314 354 335 8 341 313 284 249 197 108 12 157 195 126 204 206 217
22 19 17 14 9 6 4 1 357 353 348 341 46 62 266 332 67 48 90 54 60 39 19 24 20 352 7 11 342 331 302 74 13 346 11 6 312 287 103 195 180 144 247 233 196 177 225
26 22 20 15 11 9 7 3 1 358 353 32 19 47 296 8 51 41 48 358 346 17 26 28 86 39 22 6 314 307 311 11 31 29 0 9 296 279 235 250 205 203 254 245 237 241 247
13 12 14 13 11 9 6 3 2 2 4 331 52 321 329 55 76 19 341 344 61 29 30 28 26 56 15 22 303 322 342 2 35 358 10 351 339 311 296 294 25 34 40 2 321 289 244
22 17 15 15 14 10 8 4 2 3 359 79 64 43 344 35 56 95 33 5 25 34 72 342 282 79 335 243 237 299 304 310 347 317 291 179 219 270 290 307 303 304 21 359 317 269 340
20 15 17 15 12 12 11 9 6 4 1 73 27 41 100 8 356 11 28 28 51 21 14 1 37 59 28 303 309 240 303 313 283 288 11 336 286 263 277 290 308 55 15 36 79 346 168
23 28 30 23 19 16 14 13 13 8 8 72 74 28 348 338 2 23 20 3 35 9 322 338 29 340 324 269 277 301 326 250 235 293 29 352 281 319 296 284 286 80 36 74 49 359 34
24 26 24 21 17 22 20 16 18 22 30 69 349 348 87 332 21 51 30 37 13 16 298 8 339 317 304 296 289 278 259 257 249 276 283 271 227 52 264 332 161 67 12 72 85 36 360
20 19 18 18 20 16 21 19 19 31 43 88 4 31 40 2 58 34 39 13 328 320 261 302 338 315 294 307 299 283 254 254 251 257 233 251 263 195 261 325 184 99 62 88 95 53 33
18 18 19 18 19 20 15 17 20 27 35 64 15 56 56 11 321 29 10 357 349 326 312 298 322 274 296 313 304 316 346 113 76 39 41 13 221 304 90 53 113 229 40 356 29 54 15
20 13 10 12 14 15 15 16 16 22 30 54 58 96 76 94 269 329 336 30 351 323 337 276 341 289 320 281 279 296 314 354 45 320 36 33 36 109 16 119 194 231 314 305 225 261 316
12 11 10 4 4 9 10 13 14 6 10 70 293 84 66 11 268 59 221 321 331 337 263 307 333 339 10 330 289 343 343 342 45 39 338 356 359 77 1 112 296 271 314 327 74 266 276
7 7 3 2 0 4 4 4 4 359 355 171 235 159 122 320 285 269 18 295 329 42 335 305 355 360 326 14 341 336 15 26 84 52 14 87 42 360 354 65 299 301 1 106 233 292 254
360 360 1 0 1 357 355 352 352 349 338 330 289 109 116 169 247 294 242 219 214 236 217 308 243 260 276 358 354 20 13 15 92 58 27 8 29 283 143 228 229 274 146 229 174 246 280